{"data":{"norad_id":57797,"epoch":"2026-09-22T22:29:57.990336Z","epoch_age_seconds":95470,"freshness":"FRESH","line1":"1 57797U 23136A   26265.93747674  .00000245  00000+0  62320-4 0  9995","line2":"2 57797  98.1927 188.9256 0006481 239.7426 120.3132 14.58793830162182","mean_motion":14.5879383,"eccentricity":0.0006481,"inclination_deg":98.1927,"raan_deg":188.9256,"arg_perigee_deg":239.7426,"mean_anomaly_deg":120.3132,"bstar":6.232e-5,"rev_number":16218,"period_min":98.711687038051,"perigee_km":692.48584268808,"apogee_km":701.65672766732,"semimajor_km":7075.2082851777,"source":"CELESTRAK","updated_at":"2026-09-23T09:00:18.383966Z"}}